Station BISM2 - 8571421 - Bishops Head, MD Image indicating link to RSS feed of recent meteorological observations for station BISM2


Conditions at BISM2 as of
(9:18 am EDT)
1318 GMT on 07/22/2024:
     

Click on the graph icon in the table below to see a time series plot of the last five days of that observation.

5-day plot - Wind Direction Wind Direction (WDIR):ESE ( 120 deg true )
5-day plot - Wind Speed Wind Speed (WSPD): 8.0 kts
5-day plot - Wind Gust Wind Gust (GST): 9.9 kts
5-day plot - Atmospheric Pressure Atmospheric Pressure (PRES):30.04 in
5-day plot - Air Temperature Air Temperature (ATMP): 78.4 °F
5-day plot - Water Temperature Water Temperature (WTMP): 80.6 °F
5-day plot - Wind Speed at 10 Meters Wind Speed at 10 meters (WSPD10M): 9.7 kts
5-day plot - Wind Speed at 20 Meters Wind Speed at 20 meters (WSPD20M): 9.7 kts
5-day plot -  Wind Speed, Wind Gust and Atmospheric Pressure Combined plot of Wind Speed, Gust, and Air Pressure
NOS Water Level Observation Network Water Level
Previous observations
TIME
(EDT)
5-day plot - Wind Direction
WDIR
 
5-day plot - Wind Speed
WSPD
kts
5-day plot - Wind Gust
GST
kts
5-day plot - Wave Height
WVHT
ft
5-day plot - Dominant Wave Period
DPD
sec
5-day plot - Average Wave Period
APD
sec
5-day plot - Mean Wave Direction
MWD
 
5-day plot - Atmospheric Pressure
PRES
in
5-day plot - Pressure Tendency
PTDY
in
5-day plot - Air Temperature
ATMP
°F
5-day plot - Water Temperature
WTMP
°F
5-day plot - Dew Point
DEWP
°F
5-day plot - Salinity
SAL
psu
5-day plot - Visibility
VIS
nmi
5-day plot - Tide (above MLLW)
TIDE
ft
2024-07-22 09:12 amSSE 8.0 12.0----30.05- 78.4 80.6----
2024-07-22 09:06 amSSE 11.1 12.0----30.06- 78.6 80.6----
2024-07-22 09:00 amSSE 11.1 14.0----30.06+0.01 78.4 80.6----
2024-07-22 08:54 amSSE 12.0 14.0----30.07- 78.4 80.6----
2024-07-22 08:48 amSSE 13.0 14.0----30.07- 78.4 80.6----
2024-07-22 08:42 amSSE 11.1 13.0----30.08- 78.3 80.6----
2024-07-22 08:36 amSSE 12.0 13.0----30.08- 78.3 80.8----
2024-07-22 08:30 amSSE 11.1 12.0----30.08- 78.1 80.8----
2024-07-22 08:24 amSSE 8.9 9.9----30.08- 77.9 80.8----
2024-07-22 08:18 am SE 8.9 11.1----30.08- 77.5 80.8----
2024-07-22 08:12 amSSE 8.9 11.1----30.07- 77.4 81.0----
2024-07-22 08:06 am SE 8.9 11.1----30.07- 77.4 81.0----
2024-07-22 08:00 am SE 8.9 11.1----30.07+0.02 77.2 81.0----
2024-07-22 07:54 am SE 8.0 11.1----30.07- 77.4 81.1----
2024-07-22 07:48 amSSE 8.9 9.9----30.07- 77.4 81.1----
2024-07-22 07:42 am SE 8.0 9.9----30.07- 77.2 81.1----
2024-07-22 07:36 amESE 7.0 9.9----30.07- 76.8 81.1----
2024-07-22 07:30 am SE 8.9 9.9----30.07- 76.8 81.1----
2024-07-22 07:24 amESE 8.0 8.9----30.06- 76.6 81.1----
2024-07-22 07:18 amESE 7.0 8.0----30.06- 76.8 81.1----
2024-07-22 07:12 amESE 7.0 8.9----30.06- 77.0 81.0----
2024-07-22 07:06 am E 7.0 8.0----30.06- 77.0 81.0----
2024-07-22 07:00 am SE 7.0 8.0----30.06+0.01 77.2 81.0----
2024-07-22 06:54 am SE 7.0 7.0----30.06- 77.4 81.0----
2024-07-22 06:48 amESE 6.0 8.0----30.05- 77.4 81.0----
2024-07-22 06:42 amESE 6.0 7.0----30.06- 77.2 81.0----
2024-07-22 06:36 am SE 6.0 7.0----30.05- 77.2 81.1----
2024-07-22 06:30 amESE 6.0 8.0----30.06- 77.4 81.1----
2024-07-22 06:24 amESE 7.0 8.0----30.05- 77.2 81.3----
2024-07-22 06:18 am SE 6.0 7.0----30.05- 77.4 81.3----
2024-07-22 06:12 amESE 5.1 8.0----30.05- 77.5 81.3----
2024-07-22 06:06 amESE 6.0 7.0----30.05- 78.3 81.3----
2024-07-22 06:00 amSSE 6.0 6.0----30.05-0.01 79.2 81.3----
2024-07-22 05:54 amSSE 6.0 7.0----30.05- 79.0 81.3----
2024-07-22 05:48 am S 6.0 7.0----30.05- 79.0 81.3----
2024-07-22 05:42 amSSE 6.0 8.0----30.05- 79.2 81.3----
2024-07-22 05:36 amSSE 7.0 8.0----30.06- 79.2 81.5----
2024-07-22 05:30 amSSE 7.0 9.9----30.06- 79.0 81.5----
2024-07-22 05:24 am S 8.0 8.9----30.05- 79.0 81.5----
2024-07-22 05:18 am S 8.9 9.9----30.05- 78.8 81.5----
2024-07-22 05:12 amSSE 8.9 9.9----30.05- 78.8 81.7----
2024-07-22 05:06 amSSE 8.0 9.9----30.05- 78.8 81.7----
2024-07-22 05:00 am S 8.9 9.9----30.05-0.02 78.8 81.7----
2024-07-22 04:54 am S 8.0 9.9----30.05- 78.8 81.7----
2024-07-22 04:48 am S 8.0 9.9----30.05- 78.8 81.7----
2024-07-22 04:42 amSSE 8.9 9.9----30.05- 78.8 81.7----
2024-07-22 04:36 amSSE 8.0 9.9----30.05- 78.8 81.7----
2024-07-22 04:30 am S 8.9 9.9----30.04- 78.6 81.9----
2024-07-22 04:24 am S 8.0 11.1----30.04- 79.0 81.9----
2024-07-22 04:18 am S 9.9 11.1----30.04- 78.8 81.9----
2024-07-22 04:12 amSSE 8.9 11.1----30.04- 78.8 81.9----
2024-07-22 04:06 amSSE 9.9 11.1----30.04- 78.8 81.9----
2024-07-22 04:00 am S 9.9 11.1----30.05-0.04 78.8 81.9----
2024-07-22 03:54 am S 8.9 9.9----30.05- 78.8 81.9----
2024-07-22 03:48 amSSE 8.9 9.9----30.05- 78.8 81.9----
2024-07-22 03:42 am S 9.9 11.1----30.05- 78.8 82.0----
2024-07-22 03:36 am S 9.9 11.1----30.05- 78.6 82.0----
2024-07-22 03:30 am S 8.9 11.1----30.05- 78.6 82.0----
2024-07-22 03:24 am S 9.9 11.1----30.06- 78.6 82.0----
2024-07-22 03:18 am S 9.9 11.1----30.05- 78.8 82.0----
2024-07-22 03:12 am S 9.9 11.1----30.05- 78.8 82.2----
2024-07-22 03:06 am S 11.1 11.1----30.06- 78.6 82.2----
2024-07-22 03:00 am S 9.9 11.1----30.06-0.01 78.6 82.2----
2024-07-22 02:54 am S 11.1 12.0----30.06- 78.6 82.4----
2024-07-22 02:48 am S 11.1 12.0----30.06- 78.6 82.4----
2024-07-22 02:42 am S 9.9 13.0----30.06- 78.6 82.4----
2024-07-22 02:36 am S 12.0 13.0----30.06- 78.6 82.4----
2024-07-22 02:30 am S 11.1 12.0----30.06- 78.6 82.4----
2024-07-22 02:24 am S 11.1 12.0----30.07- 78.4 82.4----
2024-07-22 02:18 am S 9.9 12.0----30.07- 78.4 82.4----
2024-07-22 02:12 am S 8.9 11.1----30.07- 78.3 82.2----
2024-07-22 02:06 am S 8.9 11.1----30.07- 78.4 82.2----
2024-07-22 02:00 am S 8.9 12.0----30.07+0.00 78.4 82.6----
2024-07-22 01:54 am S 11.1 12.0----30.07- 78.3 82.9----
2024-07-22 01:48 am S 11.1 13.0----30.07- 78.6 82.9----
2024-07-22 01:42 am S 12.0 13.0----30.08- 78.4 82.8----
2024-07-22 01:36 am S 12.0 13.0----30.08- 78.4 82.8----
2024-07-22 01:30 am S 12.0 13.0----30.08- 78.4 82.8----
2024-07-22 01:24 am S 12.0 13.0----30.08- 78.6 83.3----
2024-07-22 01:18 am S 12.0 13.0----30.08- 78.4 83.5----
2024-07-22 01:12 am S 12.0 14.0----30.08- 78.4 83.3----
2024-07-22 01:06 am S 12.0 13.0----30.08- 78.4 83.3----
2024-07-22 01:00 am S 12.0 14.0----30.08+0.01 78.6 82.9----
2024-07-22 12:54 am S 12.0 14.0----30.08- 78.6 82.8----
2024-07-22 12:48 am S 12.0 13.0----30.08- 78.6 82.9----
2024-07-22 12:42 am S 11.1 13.0----30.08- 78.8 82.9----
2024-07-22 12:36 am S 11.1 12.0----30.08- 78.4 82.9----
2024-07-22 12:30 am--------- 78.6 82.8----
2024-07-22 12:24 am--------- 78.6 82.8----
2024-07-22 12:18 am S 11.1 13.0----30.08- 78.6 82.8----
2024-07-22 12:12 am S 12.0 13.0----30.08- 78.6 82.8----
2024-07-22 12:06 am S 11.1 13.0----30.07- 78.8 82.8----
2024-07-22 12:00 am S 12.0 14.0----30.07+0.02 78.6 82.6----
2024-07-21 11:54 pm S 12.0 14.0----30.08- 78.6 82.6----
2024-07-21 11:48 pm S 12.0 13.0----30.07-- 82.2----
2024-07-21 11:42 pm S 12.0 15.0----30.08-- 82.2----
2024-07-21 11:36 pm S 13.0 15.0----30.07-- 82.2----
2024-07-21 11:30 pm S 14.0 15.9----30.07- 78.8 82.4----
2024-07-21 11:24 pm S 13.0 14.0----30.07- 78.8 82.4----
2024-07-21 11:18 pm S 12.0 13.0----30.07- 78.4 82.2----
2024-07-21 11:12 pm S 12.0 15.0----30.08- 78.6 82.2----
2024-07-21 11:06 pm S 13.0 14.0----30.08- 79.0 82.2----
2024-07-21 11:00 pm S 12.0 15.9----30.08+0.05 79.3 82.4----
2024-07-21 10:54 pm S 12.0 14.0----30.08- 79.3 82.6----
2024-07-21 10:48 pm S 13.0 14.0----30.08- 79.3 82.4----
2024-07-21 10:42 pm S 13.0 15.0----30.08- 79.3 82.4----
2024-07-21 10:36 pmSSE 13.0 14.0----30.08- 79.3 82.4----
2024-07-21 10:30 pmSSE 13.0 15.0------ 79.5 82.4----
2024-07-21 10:24 pm S 13.0 15.0------ 79.5 82.4----
2024-07-21 10:18 pmSSE 13.0 14.0----30.07- 79.5 82.4----
2024-07-21 10:12 pm S 13.0 15.0----30.07- 79.5 82.6----
2024-07-21 10:06 pmSSE 12.0 14.0----30.07- 79.7 82.6----
2024-07-21 10:00 pmSSE 12.0 15.0----30.07+0.04 79.7 82.8----
2024-07-21 09:54 pmSSE 13.0 15.0----30.07- 79.7 83.1----
2024-07-21 09:48 pmSSE 13.0 14.0----30.06- 79.7 83.1----
2024-07-21 09:42 pmSSE 12.0 14.0----30.06- 79.5 83.3----
2024-07-21 09:36 pmSSE 12.0 13.0----30.06- 79.9 83.7----
2024-07-21 09:30 pmSSE 12.0 15.0----30.06- 80.1 84.0----
2024-07-21 09:24 pmSSE 12.0 13.0----30.06- 79.9 84.2----
2024-07-21 09:18 pmSSE 11.1 13.0----30.06-- 84.2----
2024-07-21 09:12 pmSSE 11.1 13.0----30.06-- 84.4----
2024-07-21 09:06 pmSSE 11.1 13.0----30.06-- 84.7----
2024-07-21 09:00 pmSSE 11.1 13.0----30.05+0.02- 84.9----
2024-07-21 08:54 pmSSE 11.1 14.0----30.05-- 85.1----
2024-07-21 08:48 pmSSE 12.0 13.0----30.05- 80.6 85.1----
2024-07-21 08:42 pmSSE 12.0 13.0----30.04- 80.6 85.3----
2024-07-21 08:36 pmSSE 12.0 14.0----30.04- 80.6 85.3----
2024-07-21 08:30 pmSSE 12.0 13.0----30.04- 80.8 85.5----
2024-07-21 08:24 pm S 12.0 14.0----30.04- 81.0 85.5----
2024-07-21 08:18 pm S 11.1 12.0----30.04-- 85.6----
2024-07-21 08:12 pm S 11.1 13.0----30.04-- 85.6----
2024-07-21 08:06 pmSSE 9.9 14.0----30.03-- 85.6----
2024-07-21 08:00 pmSSE 12.0 13.0----30.03+0.00 81.0 85.6----
2024-07-21 07:54 pm S 9.9 13.0----30.03- 81.1 85.5----
2024-07-21 07:48 pm S 12.0 13.0----30.03-------
2024-07-21 07:42 pm S 12.0 14.0----30.03-------
2024-07-21 07:36 pm S 12.0 13.0----30.03-------
2024-07-21 07:30 pmSSE 11.1 12.0----30.03- 81.3 85.3----
2024-07-21 07:24 pmSSE 9.9 12.0----30.03- 81.3 85.5----
2024-07-21 07:18 pmSSE 9.9 12.0----30.03- 81.5 85.5----
2024-07-21 07:12 pm S 11.1 13.0----30.03- 81.5 85.3----
2024-07-21 07:00 pm S 13.0 14.0----30.03-0.02- 85.1----
2024-07-21 06:54 pmSSE 12.0 13.0----30.03-- 85.3----
2024-07-21 06:48 pmSSE 11.1 13.0----30.03- 81.7 85.5----
2024-07-21 06:42 pmSSE 11.1 12.0----30.03- 81.9 85.3----
2024-07-21 06:36 pmSSE 9.9 13.0----30.03- 81.9 85.3----
2024-07-21 06:30 pm-------30.03- 81.9 85.3----
2024-07-21 06:24 pm-------30.03- 81.9 85.3----
2024-07-21 06:18 pmSSE 12.0 14.0----30.03- 81.7 85.3----
2024-07-21 06:12 pm S 12.0 14.0----30.03- 81.7 85.1----
2024-07-21 06:06 pm S 11.1 13.0----30.03- 81.9 85.1----
2024-07-21 06:00 pmSSE 12.0 15.9----30.03-0.03 81.7 85.3----
2024-07-21 05:54 pmSSE 11.1 13.0----30.03- 81.9 85.3----
2024-07-21 05:48 pm S 12.0 15.9----30.03- 81.7 85.3----
2024-07-21 05:42 pm S 9.9 14.0----30.03- 81.7 85.3----
2024-07-21 05:36 pm SE 9.9 13.0----30.03- 81.3 85.1----
2024-07-21 05:30 pmSSE 9.9 12.0----30.03-- 85.1----
2024-07-21 05:24 pm S 8.0 11.1----30.04-- 85.1----
2024-07-21 05:18 pm-------30.04- 81.9 85.1----
2024-07-21 05:12 pm-------30.04- 81.5 85.1----
2024-07-21 05:06 pm-------30.04- 81.3 84.9----
2024-07-21 05:00 pm S 12.0 14.0----30.04-0.02 81.1 84.9----
2024-07-21 04:54 pmSSE 12.0 13.0----30.04- 81.1 84.7----
2024-07-21 04:48 pmSSE 11.1 14.0----30.04- 81.1 84.7----
2024-07-21 04:42 pmSSE 12.0 14.0----30.04- 81.0 84.4----
2024-07-21 04:36 pmSSE 11.1 13.0----30.04- 81.0 84.0----
2024-07-21 04:30 pm-------30.04- 81.1 84.0----
2024-07-21 04:24 pm-------30.04- 81.0 84.0----
2024-07-21 04:18 pmSSE 12.0 13.0----30.04- 81.3 83.8----
2024-07-21 04:12 pm S 9.9 12.0----30.04- 81.5 83.8----
2024-07-21 04:06 pm S 8.9 9.9----30.04- 81.3 83.3----
2024-07-21 04:00 pm-------30.05-0.02 81.5 83.3----
2024-07-21 03:54 pm-------30.05- 81.1 83.3----
2024-07-21 03:48 pm S 8.9 9.9----30.05- 81.3 83.3----
2024-07-21 03:42 pmSSE 8.9 12.0----30.05- 81.3 83.3----
2024-07-21 03:36 pmSSE 8.0 9.9----30.05- 81.1 83.3----
2024-07-21 03:30 pmSSE 8.9 11.1----30.05- 81.1 83.1----
2024-07-21 03:24 pmSSW 8.0 9.9----30.05- 81.3 83.1----
2024-07-21 03:18 pm S 8.0 11.1----30.05- 81.3 83.1----
2024-07-21 03:12 pmSSW 8.9 8.9----30.06- 81.3 83.3----
2024-07-21 03:06 pm SW 7.0 11.1----30.06- 81.0 83.5----
2024-07-21 03:00 pmSSW 8.0 9.9----30.06-0.02 81.1 83.5----
2024-07-21 02:54 pmSSW 8.0 8.9----30.06- 81.1 83.3----
2024-07-21 02:48 pmSSW 7.0 11.1----30.06- 81.3 83.3----
2024-07-21 02:42 pmSSW 7.0 8.0----30.06- 81.3 83.3----
2024-07-21 02:36 pm S 7.0 8.9----30.06- 81.3 83.3----
2024-07-21 02:30 pm S 4.1 7.0------ 81.3 83.5----
2024-07-21 02:24 pmSSE 6.0 8.0------ 81.1 83.8----
2024-07-21 02:18 pm S 7.0 7.0----30.06- 81.3 84.0----
2024-07-21 02:12 pm SE 6.0 8.0----30.06- 81.1 84.2----
2024-07-21 02:06 pm SE 5.1 6.0----30.06- 81.1 84.2----
2024-07-21 02:00 pm SE 5.1 5.1----30.06-0.01- 84.4----
2024-07-21 01:54 pm SE 4.1 5.1----30.06-- 84.2----
2024-07-21 01:48 pm SE 4.1 5.1----30.06-- 84.0----
2024-07-21 01:42 pm SE 2.9 6.0----30.06-- 84.0----
2024-07-21 01:36 pm SE 4.1 6.0----30.06-- 83.5----
2024-07-21 01:30 pm SE 5.1 6.0----30.06- 80.6 83.1----
2024-07-21 01:24 pm SE 5.1 6.0----30.06- 80.4 83.3----
2024-07-21 01:18 pmSSE 4.1 4.1----30.07- 80.8 83.3----
2024-07-21 01:12 pm SE 4.1 5.1----30.07- 80.4 83.3----
2024-07-21 01:06 pm S 4.1 5.1----30.07- 80.4 83.3----
2024-07-21 01:00 pm S 4.1 6.0----30.07+0.01 80.4 83.3----
2024-07-21 12:54 pmSSE 5.1 6.0----30.07- 80.1 82.9----
2024-07-21 12:48 pmSSE 5.1 7.0----30.07- 79.9 82.9----
2024-07-21 12:42 pm S 6.0 7.0----30.07- 79.5 82.8----
2024-07-21 12:36 pm S 5.1 8.0----30.07- 79.5 82.8----
2024-07-21 12:30 pm S 7.0 8.0----30.07- 79.0 82.8----
2024-07-21 12:24 pmSSE 5.1 8.0----30.07- 79.0 82.6----
2024-07-21 12:18 pmSSE 5.1 6.0----30.08- 79.3 82.6----
2024-07-21 12:12 pmSSE 4.1 5.1----30.08- 79.0 82.6----
2024-07-21 12:06 pmSSE 2.9 4.1----30.08- 79.3 82.6----
2024-07-21 12:00 pm S 4.1 5.1----30.08+0.01 79.2 82.4----
2024-07-21 11:54 amSSE 1.9 5.1----30.08- 79.0 82.2----
2024-07-21 11:48 am SE 4.1 5.1----30.07- 79.0 82.2----
2024-07-21 11:42 am SE 4.1 5.1----30.07- 79.0 82.0----
2024-07-21 11:36 am SE 2.9 5.1----30.07- 78.8 82.0----
2024-07-21 11:30 am SE 4.1 5.1----30.07- 78.4 81.9----
2024-07-21 11:24 am SE 4.1 5.1----30.07- 78.3 81.7----
2024-07-21 11:18 am SE 4.1 6.0----30.07- 78.1 81.5----
2024-07-21 11:12 am SE 5.1 5.1----30.07- 77.9 81.3----
2024-07-21 11:06 am SE 4.1 5.1----30.07- 78.1 81.1----
2024-07-21 11:00 am SE 4.1 5.1----30.07+0.01 77.9 81.0----
2024-07-21 10:54 am SE 2.9 4.1----30.07- 77.9 81.0----
2024-07-21 10:48 amESE 2.9 5.1----30.07- 77.7 80.8----
2024-07-21 10:42 amESE 2.9 5.1----30.06- 77.9 80.6----
2024-07-21 10:36 amESE 4.1 6.0----30.06- 77.7 80.4----
2024-07-21 10:30 am-------30.06- 77.5 80.2----
2024-07-21 10:24 am-------30.06- 77.5 80.2----
2024-07-21 10:18 am E 1.9 4.1----30.06- 78.1 80.2----
2024-07-21 10:12 am E 2.9 4.1----30.06- 78.1 79.9----
2024-07-21 10:06 am E 1.0 4.1----30.06- 77.7 79.7----
2024-07-21 10:00 am SE 2.9 4.1----30.06+0.02 77.5 79.7----
2024-07-21 09:54 am E 2.9 4.1----30.06- 77.5 79.5----
2024-07-21 09:48 amESE 2.9 4.1----30.06- 77.4 79.5----
2024-07-21 09:42 am E 2.9 4.1----30.06- 77.7 79.3----
2024-07-21 09:36 am E 2.9 4.1----30.06- 77.9 79.2----
2024-07-21 09:30 am NE 1.9 2.9----30.06-- 79.0----
2024-07-21 09:24 am E 2.9 4.1----30.06-- 79.0----
2024-07-21 09:18 am-------30.06- 78.3 78.8----
2024-07-21 09:12 am-------30.06- 77.7 78.8----
2024-07-21 09:06 am-------30.06- 77.5 78.6----
2024-07-21 09:00 amNNE 2.9 6.0----30.06+0.03- 78.6----
2024-07-21 08:54 am NE 5.1 7.0----30.06-- 78.6----